ATLAS 5 CENTAUR DEB, 44009

Orbit data source: Space-Track

ATLAS 5 CENTAUR DEB, 44009 is space debris in HEO originally from a launch on Wed, 17 Sep 2014 UTC launched from the Air Force Eastern Test Range (AFETR). Debris objects in space refer to the collection of defunct objects orbiting the Earth. Examples of debris include non-operational satellites, rocket bodies, and fragments generated from explosions, collisions, or faulty payload assembly.

Loading next visibility...
Identifier
44009, 2014-055BQ
Orbit
HEO
Country
Flag of USUS
Related business
Flag of USUnited Launch Alliance/Lockheed Martin (US)
Manufacturer
Unknown
Mission
Spacecraft
Bus & Motor
Unknown
Mass
Unknown
Launch date (UTC)
2014-09-17 (11 years ago)
Launch vehicle
Unknown
Launch site
Air Force Eastern Test Range (AFETR)
Object type
Payload
Rocket body
Debris
Shape & HBR
Unknown shape, 1.1 m
Radar Cross Section
Small (<0.1 m²)

Expand to show TLE details & history
Last TLE update: 1 month ago

TLE from 1 month ago
0 ATLAS 5 CENTAUR DEB
1 44009U 14055BQ  25257.86583760 -.00000142  00000-0  00000-0 0  9994
2 44009  20.5312 136.3413 4999229 180.7994 177.9281  1.91641954 48675
Epoch: 2025-09-14T20:46Z
TLE epoch observation values (Epoch: 2025-09-14T20:46:48.368Z)
Latitude
0.00001°
Longitude
-169.41175°
Altitude
34,688.322 km
Speed
2.203 km/s
True Right ascension
09h 05m 28s
True Declination
0° 00' 00"
Sunlit
Object was in daylight at epoch
Visualization orbit readout
Latitude
Unknown
Longitude
Unknown
Altitude
Unknown
Speed
Unknown
Apparent Right ascension
Unknown
Apparent Declination
Unknown
Sunlit
N/A
Visualization observer readout
Local Sidereal Time
12:37:24
Azimuth
Unknown
Elevation
Unknown
Doppler factor
Unknown
Orbital elements
Apogee altitude
34,690.411 km
Perigee altitude
7,314.194 km
Semi-major axis
27,380.439 km
Eccentricity
0.49992
Inclination
20.5312°
RAAN
136.3413°
Arg. of periapsis
180.7994°
True anomaly
179.20235°
Mean anomaly
177.9281°
Eccentric anomaly
178.61862°
Mean motion
0.47905 °/min
Orbital period
751.48 mins
BSTAR
0
Loading maneuver chart data...
Computing Atmospheric mass density...

Documentation

Showing up to 5 results
|